Tracking 19832 objects as of 25-Aug-2019
HD Live streaming from Space Station
objects crossing your sky now

COSMOS 2251 DEB

Track COSMOS 2251 DEB now!
10-day predictions


NORAD ID: 40803
Int'l Code: 1993-036BWG
Perigee: 719.7 km
Apogee: 769.5 km
Inclination: 74.0 °
Period: 99.6 minutes
Semi major axis: 7115 km
RCS: Unknown
Launch date: June 16, 1993
Source: Commonwealth of Independent States (former USSR) (CIS)
Launch site: PLESETSK MISSILE AND SPACE COMPLEX (PKMTR)

Note: This is SATELLITE DEBRIS
aabbcc
Your satellite tracking list
Your tracking list is empty




NASA's NSSDC Master Catalog

Two Line Element Set (TLE):
1 40803U 93036BWG 19235.12188559 +.00000097 +00000-0 +34246-4 0  9994
2 40803 074.0147 048.8943 0035013 104.0249 256.4805 14.46381113254113
Source of the keplerian elements: AFSPC